Location: Unspecified
(55.7024°N, 37.6611°E)
Time: 22:29:30
(UTC+03:00)

Vanguard 3 - All Passes

Search period start: 17 June 2025 00:00
Search period end: 27 June 2025 00:00
Orbit: 508 x 3215 km, 33.4° (Epoch: 17 June)

Date Brightness Start Highest point End Pass type
(mag) Time Alt. Az. Time Alt. Az. Time Alt. Az.
17 Jun - 01:08:57 10° WSW 01:20:46 21° SW 01:30:34 10° S visible
17 Jun - 17:17:35 10° SSE 17:24:09 13° SE 17:31:14 10° ESE daylight
17 Jun - 19:21:32 10° SSW 19:35:04 28° SSE 19:49:34 10° ESE daylight
17 Jun - 21:31:46 10° SW 21:47:33 34° S 22:02:30 10° SE daylight
17 Jun - 23:45:12 10° WSW 23:59:53 28° SSW 00:12:23 10° SSE visible
18 Jun - 02:03:41 10° WSW 02:10:29 13° SW 02:16:34 10° SSW visible
18 Jun - 18:03:09 10° S 18:13:58 21° SE 18:26:10 10° ESE daylight
18 Jun - 20:11:01 10° SW 20:25:43 33° SSE 20:41:10 10° ESE daylight
18 Jun - 22:22:44 10° WSW 22:38:24 33° SSW 22:52:50 10° SE visible
19 Jun - 00:37:44 10° WSW 00:50:08 22° SW 01:00:49 10° S visible
19 Jun - 16:47:46 10° SSE 16:53:34 13° SE 16:59:55 10° ESE daylight
19 Jun - 18:51:24 10° SSW 19:04:12 28° SSE 19:18:47 10° ESE daylight
19 Jun - 21:01:17 10° SW 21:16:35 35° S 21:32:09 10° SE daylight
19 Jun - 23:14:18 10° WSW 23:29:04 29° SSW 23:42:23 10° SSE visible
20 Jun - 01:32:16 10° WSW 01:39:57 14° SW 01:46:54 10° SSW visible
20 Jun - 17:33:16 10° S 17:43:16 21° SE 17:55:03 10° ESE daylight
20 Jun - 19:40:51 10° SW 19:54:48 33° SSE 20:10:28 10° ESE daylight
20 Jun - 21:52:10 10° WSW 22:07:27 33° S 22:22:31 10° SE visible
21 Jun - 00:06:44 10° WSW 00:19:23 22° SW 00:30:49 10° S visible
21 Jun - 16:18:22 10° SSE 16:23:05 12° SE 16:28:15 10° ESE daylight
21 Jun - 18:21:30 10° SSW 18:33:25 27° SSE 18:47:45 10° ESE daylight
21 Jun - 20:31:02 10° SW 20:45:37 34° S 21:01:33 10° SE daylight
21 Jun - 22:43:38 10° WSW 22:58:10 29° SSW 23:12:07 10° SSE visible
22 Jun - 01:01:08 10° WSW 01:09:17 14° SW 01:16:53 10° SSW visible
22 Jun - 17:03:37 10° S 17:12:42 20° SE 17:23:43 10° ESE daylight
22 Jun - 19:10:54 10° SW 19:23:57 32° SSE 19:39:32 10° ESE daylight
22 Jun - 21:21:50 10° WSW 21:36:30 33° S 21:51:59 10° SE daylight
22 Jun - 23:35:58 10° WSW 23:48:34 22° SW 00:00:32 10° S visible
23 Jun - 15:49:35 10° SE 15:52:42 11° SE 15:56:05 10° ESE daylight
23 Jun - 17:51:50 10° SSW 18:02:45 26° SSE 18:16:32 10° ESE daylight
23 Jun - 20:01:02 10° SW 20:14:43 34° S 20:30:41 10° SE daylight
23 Jun - 22:13:12 10° WSW 22:27:14 28° SSW 22:41:36 10° SSE visible
24 Jun - 00:30:18 10° WSW 00:38:33 14° SW 00:46:30 10° SSW visible
24 Jun - 16:34:13 10° S 16:42:15 18° SE 16:52:14 10° ESE daylight
24 Jun - 18:41:11 10° SW 18:53:12 31° SSE 19:08:23 10° ESE daylight
24 Jun - 20:51:44 10° WSW 21:05:35 32° S 21:21:11 10° SE daylight
24 Jun - 23:05:27 10° WSW 23:17:43 22° SSW 23:29:58 10° S visible
25 Jun - 17:22:22 10° SSW 17:32:14 25° SSE 17:45:08 10° ESE daylight
25 Jun - 19:31:15 10° SW 19:43:55 33° S 19:59:36 10° SE daylight
25 Jun - 21:43:01 10° WSW 21:56:20 28° SSW 22:10:48 10° SSE daylight
25 Jun - 23:59:49 10° WSW 00:07:48 14° SW 00:15:44 10° SSW visible
26 Jun - 16:05:03 10° S 16:11:57 17° SE 16:20:37 10° ESE daylight
26 Jun - 18:11:39 10° SW 18:22:36 30° SSE 18:37:03 10° ESE daylight
26 Jun - 20:21:52 10° WSW 20:34:44 31° S 20:50:08 10° SE daylight
26 Jun - 22:35:13 10° WSW 22:46:51 21° SSW 22:59:05 10° S visible
